Zurück zum Katalog

COSMOS 1220 DEB

AktivVLEO
NORAD 25795·DEBRIS·🇷🇺 Russia

Gestartet Nov 4, 1980 von Baikonur Cosmodrome

Loading…

Nächste Überflüge (nächste 24 Stunden)

TLE

AktuellSource: Space-Track

Epoche: Sep 14, 2026, 15:40 UTC

1 25795U 80089CJ  26257.65343272  .00012301  00000-0  24526-3 0  9996
2 25795  64.9670 142.5479 0046531 225.8995 133.8314 15.46028146585900

Verfolge COSMOS 1220 DEB in Echtzeit mit AllMySat

Download on the App Store